Flag for Estonia Weather past 2 weeks in Tartu, Estonia

Now
59 °F

Passing clouds.


Feels Like: 57 °F
Forecast: 51 / 71 °F
Wind: 9 mph from Southwest

Location: Tartu/Ulenurme

Current Time: Aug 3, 2015 at 12:26:32 AM

Latest Report: Aug 2, 2015 at 11:50 PM


Visibility: N/A

Pressure: 30.09 "Hg

Humidity: 68%

Dew point: 48 °F

Location of TartuLocation

Historic Weather in Tartu — Graph

°F

Tartu temperature yesterday

Maximum temperature yesterday: 66 °F (at 12:50 PM)
Minimum temperature yesterday: 50 °F (at 2:50 AM)
Average temperature yesterday: 59 °F

Past Weeks' High & Low Weather Summary

 TemperatureHumidityPressure
High77 °F (Jul 26, 3:50 PM)94% (Jul 19, 7:50 AM)30.15 "Hg (Jul 19, 7:50 AM)
Low46 °F (Jul 28, 2:50 AM)40% (Jul 19, 3:50 PM)29.50 "Hg (Jul 29, 4:50 AM)
Average60 °F75%29.74 "Hg
* Reported Jul 18 10:50 PM — Aug 2 10:50 PM, Tartu, Weather by CustomWeather, © 2015

Note: Actual official high and low records may vary slightly from our data, if they occured in-between our weather recording intervals... More about our weather records

Advertising

Tartu weather history for previous 24 hours

 ConditionsComfort  
Time TempWeatherWind HumidityBarometerVisibility
10:50 PM
Sun, Aug 2
59 °FPassing clouds.8 mph68%30.09 "HgN/A
9:50 PM57 °FScattered clouds.8 mph72%30.07 "HgN/A
8:50 PM61 °FPartly sunny.6 mph68%30.09 "HgN/A
7:50 PM64 °FBroken clouds.7 mph60%30.09 "HgN/A
6:50 PM64 °FScattered clouds.8 mph56%30.12 "HgN/A
5:50 PM66 °FScattered clouds.13 mph52%30.12 "HgN/A
4:50 PM66 °FPartly sunny.12 mph56%30.12 "HgN/A
3:50 PM66 °FPartly sunny.15 mph52%30.12 "HgN/A
2:50 PM66 °FBroken clouds.12 mph56%30.15 "HgN/A
1:50 PM66 °FScattered clouds.14 mph56%30.15 "HgN/A
12:50 PM66 °FScattered clouds.14 mph56%30.15 "HgN/A
11:50 AM64 °FScattered clouds.10 mph64%30.15 "HgN/A
10:50 AM63 °FScattered clouds.13 mph68%30.15 "HgN/A
9:50 AM61 °FScattered clouds.14 mph72%30.12 "HgN/A
8:50 AM59 °FScattered clouds.14 mph82%30.12 "HgN/A
7:50 AM57 °FCool.9 mph82%30.12 "HgN/A
6:50 AM54 °FCool.10 mph88%30.09 "HgN/A
5:50 AM52 °FCool.9 mph88%30.09 "HgN/A
4:50 AM50 °FCool.8 mph88%30.07 "HgN/A
3:50 AM50 °FCool.9 mph94%30.07 "HgN/A
2:50 AM50 °FCool.8 mph94%30.07 "HgN/A
1:50 AM52 °FCool.9 mph88%30.07 "HgN/A
12:50 AM52 °FCool.7 mph94%30.04 "HgN/A
Weather by CustomWeather, © 2015

See weather overviewHow to use our weather pages